Regional Weather Roundup
Issued by NWS

Home | Current Version | Previous Version | Text Only | Print | Product List | Glossary Off
Versions: 1 2 3 4 5 6 7 8 9 10 11 12 13 14 15 16 17 18 19 20 21 22 23 24 25 26 27 28 29 30 31 32 33 34 35 36 37 38 39 40 41 42 43 44 45 46 47 48 49 50

000
ASUS43 KMPX 220910
RWRMN
WEATHER ROUNDUP FOR MINNESOTA
NATIONAL WEATHER SERVICE TWIN CITIES/CHANHASSEN MN
400 AM CDT MON SEP 22 2014


NOTE: "FAIR" INDICATES FEW OR NO CLOUDS BELOW 12,000 FEET WITH NO
SIGNIFICANT WEATHER AND/OR OBSTRUCTIONS TO VISIBILITY. N/A MEANS
CURRENT SKY AND/OR WEATHER CONDITIONS ARE NOT AVAILABLE.

MNZ060>063-068>070-221000-
   Twin Cities Metro

CITY           SKY/WX    TMP DP  RH WIND       PRES   REMARKS
TWIN CITIES    CLEAR     51  48  89 CALM      30.22S
ST PAUL        CLEAR     49  49 100 CALM      30.23S
CRYSTAL        CLEAR     48  44  86 CALM      30.21S
BLAINE           N/A     46  46 100 CALM      30.22S FOG
LAKEVILLE      CLEAR     45  43  93 CALM      30.23R
EDEN PRAIRIE   CLEAR     49  48  97 SW3       30.22R
SOUTH ST PAUL  CLEAR     50  48  94 CALM      30.22S
LAKE ELMO      FOG       41  41 100 CALM      30.23R VSB 1/4
$$
MNZ001>005-007-008-013>017-022>024-027-028-221000-
   Northwest Minnesota

CITY           SKY/WX    TMP DP  RH WIND       PRES   REMARKS
BEMIDJI        CLEAR     45  44  95 SW5       30.18S
HALLOCK        CLEAR     46  45  93 S7        30.12F
ROSEAU         CLEAR     52  46  82 SW10      30.13S
WARROAD        CLEAR     48  45  87 SW7       30.13S
THIEF RVR FALL CLEAR     46  45  93 S7        30.16S
CROOKSTON      CLEAR     46  46 100 S6        30.17S
FOSSTON        CLEAR     41  39  93 S6        30.19S
DETROIT LAKES  CLEAR     46  46 100 S3        30.21S
MOORHEAD       CLEAR     48  48 100 S3        30.20S
PARK RAPIDS    CLEAR     40  39  97 CALM      30.20S FOG
MAHNOMEN       FAIR      46  45  97 S8        30.18F
$$
MNZ006-009>011-018-025>026-221000-
   North Central Minnesota

CITY           SKY/WX    TMP DP  RH WIND       PRES   REMARKS
BAUDETTE       CLEAR     48  46  93 SW6       30.13S
FLAG ISLAND    CLEAR     52  48  87 SW16      30.08F
INTL FALLS     CLEAR     42  42 100 SW5       30.14S
WASKISH        CLEAR     43  41  93 CALM      30.16S FOG
BIG FORK       FOG       43  41  93 CALM      30.18S VSB 1/4
LONGVILLE      CLEAR     39  39 100 CALM      30.19S
GRAND RAPIDS   CLEAR     48  45  87 W3        30.19S
CRANE LAKE     MOCLDY    39  39 100 CALM      30.17R
ORR            CLEAR     45  41  87 CALM      30.14R
COOK             N/A     43  43 100 CALM      30.17R FOG
WALKER         FAIR      43  43  99 CALM      30.18S
$$
MNZ012-019>021-037-221000-
   Northeast Minnesota

CITY           SKY/WX    TMP DP  RH WIND       PRES   REMARKS
DULUTH         CLEAR     48  45  89 W6        30.17S
ELY            CLEAR     45  45 100 CALM      30.15S
HIBBING        FOG       36  35  96 CALM      30.18R VSB 3/4
EVELETH        FOG       43  41  93 W3        30.18R VSB 1/4
DULUTH HARBOR  CLEAR     48  45  87 S8        30.18R
TWO HARBORS    CLEAR     46  43  87 NW3       30.15R
SILVER BAY     CLEAR     46  46 100 W3        30.14R
GRAND MARAIS     N/A     51  47  86 NW5       30.12R
G MARAIS ARPRT MOCLDY    45  41  87 SW5       30.13S
$$
MNZ029>031-032-039>041-046>048-054>057-064-221000-
   West Central Minnesota

CITY           SKY/WX    TMP DP  RH WIND       PRES   REMARKS
FERGUS FALLS   CLEAR     46  45  93 S5        30.22S
WHEATON        CLEAR     46  43  87 S3        30.23S
MORRIS         CLEAR     45  43  93 S5        30.22S FOG
ALEXANDRIA     CLEAR     46  44  93 SW5       30.24S
ELBOW LAKE     FAIR      45  44  97 S6        30.22S
WADENA         CLEAR     39  39 100 CALM      30.21S
GLENWOOD       CLEAR     45  45 100 SW5       30.23S
APPLETON       PTCLDY    43  41  93 CALM      30.23S
BENSON         FOG       39  39 100 CALM      30.24R VSB 1/2
ORTONVILLE     CLEAR     46  43  87 CALM      30.23S
MADISON        CLEAR     45  45 100 SW5       30.24R
WILLMAR        FOG       43  39  87 CALM      30.25S VSB<1/4
$$
MNZ033>034-036-042>043-049>051-058-059-221000-
   Central Minnesota

CITY           SKY/WX    TMP DP  RH WIND       PRES   REMARKS
ST CLOUD       CLEAR     45  43  93 CALM      30.22S
SAUK CENTRE    FOG       40  40 100 CALM      30.23S VSB 1/2
PAYNESVILLE    FOG       37  37 100 SW3       30.24R VSB 1/2
AITKIN         HAZE      45  37  76 CALM      30.19S VSB<1/4
PINE RIVER     FOG       39  39 100 CALM      30.23F VSB 3/4
BRAINERD       FOG       40  40 100 CALM      30.21F VSB 3/4
STAPLES        CLEAR     41  41 100 CALM      30.21S
LONG PRAIRIE   FAIR      41  41 100 CALM      30.23R FOG
LITTLE FALLS   CLEAR     41  39  93 CALM      30.22S FOG
LITCHFIELD     CLEAR     48  48 100 CALM      30.24S
BUFFALO        CLEAR     46  44  91 CALM      30.24S FOG
MAPLE LAKE     CLEAR     46  45  99 W3        30.24R FOG
$$
MNZ037-044-045-052-053-221000-
   East Central Minnesota

CITY           SKY/WX    TMP DP  RH WIND       PRES   REMARKS
PRINCETON      CLEAR     43  43 100 CALM      30.22S
MORA           CLEAR     41  39  93 CALM      30.22S FOG
CAMBRIDGE      CLEAR     46  39  76 CALM      30.20S HAZE
RUSH CITY      PTCLDY    42  41  97 CALM      30.22R FOG
MOOSE LAKE     CLEAR     43  43 100 SW3       30.18S
HINCKLEY       FOG       41  41 100 CALM      30.20S VSB 3/4
CLOQUET        CLEAR     46  45  93 W6        30.18S
MCGREGOR       CLEAR     39  39 100 CALM      30.20S
$$
MNZ071>073-080-081-089-090-097-098-221000-
   Southwest Minnesota

CITY           SKY/WX    TMP DP  RH WIND       PRES   REMARKS
MONTEVIDEO     CLEAR     46  45  93 CALM      30.25R
GRANITE FALLS  CLEAR     42  42 100 CALM      30.26R
CANBY          CLEAR     50  47  87 SW5       30.26R
MARSHALL       CLEAR     46  43  87 SW8       30.24S
REDWOOD FALLS  CLEAR     44  42  93 CALM      30.24F
OLIVIA         CLEAR     43  41  93 CALM      30.24S
PIPESTONE      CLEAR     45  43  93 SW3       30.27S
WINDOM         CLEAR     43  43 100 CALM      30.26S
WORTHINGTON    CLEAR     41  39  93 SW5       30.28S
JACKSON        CLEAR     41  39  93 CALM      30.27R
TRACY          CLEAR     49  46  92 CALM      30.25S
SLAYTON        CLEAR     44  43  95 CALM      30.27S
$$
MNZ065>067-074>077-082>085-091>093-221000-
   South Central Minnesota

CITY           SKY/WX    TMP DP  RH WIND       PRES   REMARKS
MANKATO        CLEAR     48  43  81 SW5       30.24R
NEW ULM        PTCLDY    43  43 100 CALM      30.25S FOG
ST JAMES       CLEAR     43  41  93 SW3       30.27S
FAIRMONT       CLEAR     45  41  87 W3        30.26R
GLENCOE        CLEAR     47  44  90 W3        30.24R
FARIBAULT      CLEAR     46  43  87 CALM      30.24R
OWATONNA       CLEAR     43  43 100 CALM      30.24S FOG
WASECA         CLEAR     41  37  87 CALM      30.25S FOG
ALBERT LEA     CLEAR     48  48 100 CALM      30.25R
$$
MNZ078>079-086>088-094>096-221000-
   Southeast Minnesota

CITY           SKY/WX    TMP DP  RH WIND       PRES   REMARKS
ROCHESTER      CLEAR     47  45  93 W8        30.25R
RED WING       FOG       45  43  93 CALM      30.22R VSB 1/2
STANTON        CLEAR     44  43  94 CALM      30.22R
DODGE CENTER   MOCLDY    45  45 100 CALM      30.24S FOG
WINONA         CLEAR     46  45  93 CALM      30.24R
AUSTIN         FOG       46  45  93 CALM      30.25S VSB 1/2
PRESTON        CLEAR     46  47 100 NW3       30.25R
$$
ABBREVIATIONS USED IN REMARKS
   TC - TEMPERATURES IN CELSIUS
  WCI - WIND CHILL INDEX
   HX - HEAT INDEX
  VSB - VISIBILITY
$$


USA.gov is the U.S. government's official web portal to all federal, state and local government web resources and services.